STARLINK-3884, 52497

Orbit data source: Space-Track

STARLINK-3884, 52497 is a payload satellite owned by SpaceX/Seattle (US) in LEO that was launched on Fri, 06 May 2022 UTC via an FALCON 9 launch vehicle from the Air Force Eastern Test Range (AFETR). Payload-class satellites include a variety of spacecraft equipped with specific instruments for various scientific and technological missions. These include communications satellites like Starlink; space stations such as the ISS; scientific satellites like the Hubble; Earth observation satellites from companies like Planet Labs, Umbra, and HawkEye 360; GPS; miniature CubeSats for education and research; and military/defense satellites.

Loading next visibility...
Identifier
52497, 2022-049AY
Orbit
LEO
Country
Flag of USUS
Related business
Manufacturer
SpaceX/Seattle
Mission
Operational Commercial Communications
Bus & Motor
STARLINK, Unknown motor
Mass
297 kg wet, ~220 kg dry
Launch date (UTC)
2022-05-06 (4 years ago)
Launch vehicle
FALCON 9
Launch site
Air Force Eastern Test Range (AFETR)
Object type
Payload
Rocket body
Debris
Shape & HBR
Box + 1 Pan, 10.1 m
Radar Cross Section
13.562 m², Large (>1 m²)

Expand to show TLE details & history
Last TLE update: 1 day ago

TLE from 1 day ago
0 STARLINK-3884
1 52497U 22049AY  26192.02334818  .00000806  00000-0  68763-4 0  9991
2 52497  53.1573 215.2136 0001303  70.8096 289.3037 15.08836040231014
Epoch: 2026-07-11T00:33Z
TLE epoch observation values (Epoch: 2026-07-11T00:33:37.282Z)
Latitude
0.00002°
Longitude
-82.13425°
Altitude
540.349 km
Speed
7.594 km/s
True Right ascension
14h 20m 51s
True Declination
0° 00' 00"
Sunlit
Object was in daylight at epoch
Visualization orbit readout
Latitude
Unknown
Longitude
Unknown
Altitude
Unknown
Speed
Unknown
Apparent Right ascension
Unknown
Apparent Declination
Unknown
Sunlit
N/A
Visualization observer readout
Local Sidereal Time
21:26:22
Azimuth
Unknown
Elevation
Unknown
Doppler factor
Unknown
Orbital elements
Apogee altitude
540.911 km
Perigee altitude
539.109 km
Semi-major axis
6,918.147 km
Eccentricity
0.00013
Inclination
53.1573°
RAAN
215.2136°
Arg. of periapsis
70.8096°
True anomaly
289.28961°
Mean anomaly
289.3037°
Eccentric anomaly
289.29665°
Mean motion
3.77189 °/min
Orbital period
95.44 mins
BSTAR
0.000068763
Loading maneuver chart data...
Computing Atmospheric mass density...
Loading historical data...
Loading historical data...
Loading historical data...
Loading historical data...
Loading historical data...
Loading historical data...
Loading historical data...

Documentation

Showing up to 5 results
|